{"data":{"norad_id":49101,"intl_designator":"2021-075AC","name":"ONEWEB-0315","alt_names":[],"object_type":"PAYLOAD","status":"ACTIVE","operator":null,"country":"UK","launch_date":"2021-08-21","launch_site_code":"TYMSC","launch_vehicle":null,"mission":null,"orbit_class":"UNKNOWN","rcs_meters":null,"size_class":null,"mass_kg":null,"dimensions":null,"purposes":["comms"],"wikipedia_slug":null,"has_3d_model":false,"image_url":null,"decayed_at":null,"tle_current":{"epoch":"2026-05-25T02:36:27.112896Z","epoch_age_seconds":72548,"freshness":"FRESH","line1":"1 49101U 21075AC  26145.10864714  .00000538  00000+0  14599-2 0  9994","line2":"2 49101  87.8959 355.2338 0002172  88.4879 271.6498 13.12442377232141","mean_motion":13.12442377,"eccentricity":0.0002172,"inclination_deg":87.8959,"raan_deg":355.2338,"arg_perigee_deg":88.4879,"mean_anomaly_deg":271.6498,"bstar":0.0014599,"rev_number":23214,"period_min":109.71910273818,"perigee_km":1212.076740978,"apogee_km":1215.3746461321,"semimajor_km":7591.8626935551,"source":"CELESTRAK","updated_at":"2026-05-25T13:38:22.486515Z"}}}